[[{"header":{"parameterUnit":"m.s-1","parameterCategory":1,"la1":30.2992,"la2":30.254,"lo1":-89.0895,"lo2":-89.0443,"dy":0.0025,"dx":0.0025,"nx":19,"ny":19,"refTime":"2026-03-16T21:00:00:Z","depth":0,"parameterNumber":2,"parameterNumberName":"U-component_of_WINDS"},"data":[0,0,0,5.3151,5.3154,5.3274,5.3274,5.3437,5.3438,0,0,0,0,0,0,0,0,0,0,0,5.3121,5.3122,5.3151,5.3154,5.3274,5.3274,5.3436,5.3438,0,0,0,0,0,0,0,0,0,0,0,5.312,5.3122,5.3124,5.3155,5.3274,5.3274,5.3436,5.3342,0,0,0,0,0,0,0,0,0,0,5.3224,5.3202,5.3122,5.3124,5.3155,5.3274,5.3275,5.3337,5.3348,5.3386,0,5.3422,0,5.3433,5.345,5.345,0,0,0,5.3149,5.3193,5.3221,5.3124,5.3156,5.3274,5.3219,5.3343,5.3355,5.34,5.3424,5.343,5.3436,5.3451,5.3451,5.3691,5.3693,0,0,5.3143,5.3145,5.3212,5.3229,5.3212,5.3215,5.3222,5.335,5.3376,5.3425,5.3434,5.3438,5.3452,5.3453,5.369,5.3692,0,0,0,5.3127,5.3141,5.3165,5.3222,5.3243,5.3218,5.3227,5.337,5.3378,5.3435,5.344,5.3453,5.3455,5.3689,5.3691,5.3761,0,0,0,5.3123,5.3131,5.3162,5.3165,5.3241,5.3308,5.3245,5.3369,5.3384,5.3439,5.3453,5.3457,5.3687,5.369,5.3756,5.3793,0,0,0,5.3111,5.313,5.315,5.3165,5.3217,5.3306,5.3321,5.3372,5.3387,5.345,5.3457,5.3686,5.3689,5.3751,5.3786,5.3859,0,0,0,5.3099,5.3207,5.3151,5.3274,5.3216,5.3349,5.3321,5.3419,5.3482,5.3454,5.3687,5.3691,5.375,5.3781,5.3854,5.3922,5.395,0,0,5.3237,5.3224,5.3297,5.3249,5.3394,5.3331,5.3486,5.3539,5.3541,5.3641,5.3647,5.3758,5.3785,5.3858,5.4107,5.4129,0,0,0,5.3341,5.3393,5.3431,5.3492,5.3538,5.3581,5.3611,5.3632,5.3717,5.3594,5.3804,5.382,5.3863,5.3895,5.3914,5.3951,5.3705,5.3705,5.3705,5.3538,5.3539,5.366,5.3676,5.3736,5.3769,5.3818,5.3851,5.3831,5.3881,5.391,5.4061,5.4099,5.4113,5.4152,5.3946,5.3946,5.3946,5.3946,5.3741,5.3816,5.3792,5.3901,5.3902,5.3992,5.403,5.4014,5.4099,5.4038,5.4076,5.401,5.4138,5.4172,5.3952,5.3951,5.395,5.395,5.3949,5.387,5.3906,5.3932,5.4024,5.4095,5.4107,5.4192,5.4189,5.4185,5.4223,5.4255,5.4254,5.4254,5.4239,5.4239,5.424,5.424,5.4241,5.4241,5.3994,5.4021,5.4093,5.4155,5.4196,5.425,5.4287,5.4327,5.4371,5.4362,5.4362,5.4339,5.4151,5.4104,5.4249,5.4248,5.4247,5.4246,5.4245,5.42,5.4154,5.4266,5.4308,5.4382,5.4454,5.4451,5.4534,5.4567,5.4609,5.458,5.4441,5.4426,5.4411,5.4372,5.4578,5.4578,5.4578,5.4578,5.431,5.4303,5.442,5.4487,5.4553,5.4563,5.4691,5.4723,5.4747,5.4768,5.4738,5.4687,5.4671,5.4666,5.4645,5.4609,5.4871,5.4871,5.4871,5.4437,5.4438,5.4547,5.4574,5.4633,5.4684,5.4805,5.4884,5.4902,5.4883,5.4785,5.4773,5.4689,5.4662,5.4639,5.4607,5.454,0,0]},{"header":{"parameterUnit":"m.s-1","parameterCategory":1,"la1":30.2992,"la2":30.254,"lo1":-89.0895,"lo2":-89.0443,"dy":0.0025,"dx":0.0025,"nx":19,"ny":19,"refTime":"2026-03-16T21:00:00:Z","depth":0,"parameterNumber":3,"parameterNumberName":"V-component_of_WINDS"},"data":[0,0,0,-9.3101,-9.3107,-9.34,-9.3401,-9.378,-9.3783,0,0,0,0,0,0,0,0,0,0,0,-9.3016,-9.3019,-9.31,-9.3108,-9.34,-9.3401,-9.3779,-9.3783,0,0,0,0,0,0,0,0,0,0,0,-9.3015,-9.3018,-9.3022,-9.3109,-9.34,-9.3402,-9.3778,-9.3556,0,0,0,0,0,0,0,0,0,0,-9.3271,-9.3195,-9.3017,-9.3022,-9.311,-9.34,-9.3402,-9.3545,-9.357,-9.3649,0,-9.372,0,-9.3758,-9.3809,-9.381,0,0,0,-9.3105,-9.3174,-9.3252,-9.3022,-9.3113,-9.3399,-9.3268,-9.3559,-9.3587,-9.3681,-9.3725,-9.3739,-9.3764,-9.3811,-9.3813,-9.4279,-9.4281,0,0,-9.3089,-9.307,-9.3232,-9.327,-9.3225,-9.3258,-9.3277,-9.3576,-9.3622,-9.3727,-9.3748,-9.377,-9.3814,-9.3817,-9.4277,-9.428,0,0,0,-9.3044,-9.3059,-9.3128,-9.3254,-9.3307,-9.3267,-9.3288,-9.3608,-9.3633,-9.3752,-9.3775,-9.3816,-9.3821,-9.4275,-9.4278,-9.4374,0,0,0,-9.3034,-9.3032,-9.3121,-9.3112,-9.3301,-9.3461,-9.3314,-9.3612,-9.3646,-9.3773,-9.3816,-9.3824,-9.4272,-9.4276,-9.4366,-9.4422,0,0,0,-9.2996,-9.3028,-9.3071,-9.3111,-9.3236,-9.3457,-9.3499,-9.362,-9.3661,-9.381,-9.3825,-9.427,-9.4276,-9.4359,-9.441,-9.4541,0,0,0,-9.295,-9.315,-9.3072,-9.3305,-9.3234,-9.3514,-9.3497,-9.3706,-9.3846,-9.3818,-9.4272,-9.4278,-9.4356,-9.4403,-9.4534,-9.4649,-9.4695,0,0,-9.3191,-9.3178,-9.3317,-9.3256,-9.3546,-9.3471,-9.3775,-9.3919,-9.395,-9.4168,-9.4179,-9.4368,-9.441,-9.454,-9.4956,-9.4993,0,0,0,-9.3387,-9.3486,-9.3567,-9.3701,-9.3818,-9.3923,-9.4024,-9.4079,-9.4265,-9.4058,-9.4451,-9.4476,-9.4553,-9.4609,-9.464,-9.4709,-9.4302,-9.4302,-9.4301,-9.3701,-9.3732,-9.3964,-9.4032,-9.4161,-9.4265,-9.4374,-9.4465,-9.4455,-9.4548,-9.4613,-9.4862,-9.4927,-9.4951,-9.5022,-9.4675,-9.4676,-9.4676,-9.4676,-9.4059,-9.4206,-9.4193,-9.4414,-9.4446,-9.4632,-9.4741,-9.4729,-9.4907,-9.4815,-9.4884,-9.4783,-9.499,-9.5054,-9.4684,-9.4682,-9.4682,-9.4681,-9.468,-9.427,-9.4346,-9.441,-9.4609,-9.4758,-9.4819,-9.4992,-9.5014,-9.5035,-9.5104,-9.5177,-9.5176,-9.5179,-9.5137,-9.5138,-9.5139,-9.514,-9.514,-9.5141,-9.4464,-9.4533,-9.4677,-9.4821,-9.4911,-9.5032,-9.5141,-9.5231,-9.5335,-9.5338,-9.5339,-9.5323,-9.5004,-9.4924,-9.5154,-9.5152,-9.515,-9.5149,-9.5148,-9.4819,-9.4743,-9.4964,-9.5055,-9.5228,-9.5376,-9.5403,-9.5584,-9.5661,-9.5746,-9.5716,-9.5476,-9.5464,-9.5439,-9.5374,-9.5707,-9.5707,-9.5707,-9.5707,-9.4998,-9.4994,-9.5228,-9.5372,-9.5516,-9.5564,-9.5815,-9.5903,-9.598,-9.6031,-9.5985,-9.59,-9.5874,-9.5877,-9.5843,-9.5783,-9.6212,-9.6213,-9.6213,-9.5219,-9.5231,-9.5441,-9.5517,-9.5655,-9.5772,-9.601,-9.6177,-9.6249,-9.6234,-9.6071,-9.605,-9.5912,-9.5865,-9.5846,-9.5793,-9.5682,0,0]}]]